Regional Weather Roundup
Issued by NWS

Home | Current Version | Previous Version | Text Only | Print | Product List | Glossary Off
Versions: 1 2 3 4 5 6 7 8 9 10 11 12 13 14 15 16 17 18 19 20 21 22 23 24 25 26 27 28 29 30 31 32 33 34 35 36 37 38 39 40 41 42 43 44 45 46 47 48

000
ASUS43 KDMX 272107
RWRIA

WEATHER ROUNDUP FOR IOWA
NATIONAL WEATHER SERVICE DES MOINES IA
400 PM CDT WED MAY 27 2015

NOTE: "FAIR" INDICATES FEW OR NO CLOUDS BELOW 12,000 FEET WITH NO
SIGNIFICANT WEATHER AND/OR OBSTRUCTIONS TO VISIBILITY.

* - THESE STATIONS ARE NOT NWS STATIONS...THUS NOT UNDER NWS
QUALITY CONTROL.  THEY ALSO DO NOT REPORT WEATHER SUCH
AS PRECIPITATION OR FOG.

IAZ001>003-012>014-020>022-031>034-043>046-272200-
   NORTHWEST IOWA

CITY           SKY/WX    TMP DP  RH WIND       PRES   REMARKS
CARROLL *      SUNNY     82  54  36 SW7       30.04F HX  81
CHEROKEE *     SUNNY     82  50  32 SW3       30.03S HX  81
DENISON *      SUNNY     81  54  39 SW12      30.04R HX  80
LE MARS *      SUNNY     82  50  32 SW8       30.03S HX  81
ORANGE CITY *  SUNNY     81  48  32 CALM      30.03S HX  80
SHELDON *      SUNNY     82  75  78 CALM      30.01S HX  89
SIOUX CITY     SUNNY     84  49  29 S5        30.03S HX  82
SPENCER        SUNNY     84  50  30 W6        30.02S HX  82
STORM LAKE *   SUNNY     81  50  34 VRB6      30.05S HX  80
$$

IAZ055>058-069>071-079>083-090>094-272200-
   SOUTHWEST IOWA

CITY           SKY/WX    TMP DP  RH WIND       PRES   REMARKS
ATLANTIC *     MOSUNNY   81  52  36 W6G14     30.06S HX  80
AUDUBON *      SUNNY     82  48  30 SW5       30.07S HX  81
CLARINDA *     SUNNY     82  55  39 S10       30.09S HX  82
COUNCIL BLFS * SUNNY     82  52  34 SW12      30.07S HX  81
CRESTON *      SUNNY     79  57  47 SW8G15    30.08S HX  80
HARLAN  *      MOSUNNY   81  52  36 SW12      30.09S HX  80
LAMONI         SUNNY     83  57  41 W8        30.08F HX  82
RED OAK *      MOSUNNY   82  52  34 VRB6      30.07S HX  81
SHENANDOAH *   SUNNY     82  50  32 S9G15     30.07S HX  81
$$

IAZ047>049-059>061-072>074-084-272200-
   CENTRAL IOWA

CITY           SKY/WX    TMP DP  RH WIND       PRES   REMARKS
AMES           SUNNY     80  57  45 SW9       30.05S HX  80
ANKENY *       SUNNY     81  57  44 VRB5      30.05S HX  81
CHARITON *     SUNNY     79  55  44 W6        30.08S
DES MOINES     MOSUNNY   82  53  36 SW7       30.06S HX  81
GRINNELL*      MOSUNNY   77  57  50 W7        30.07S
KNOXVILLE *    SUNNY     79  52  38 W5G13     30.06S
MARSHALLTOWN   SUNNY     78  58  49 W13       30.05R
PELLA *        SUNNY     81  59  47 CALM      30.08S HX  81
PERRY *          N/A     79  52  38 SW3       30.05S
$$

IAZ004>006-015-016-023>025-035-036-272200-
   NORTH CENTRAL IOWA

CITY           SKY/WX    TMP DP  RH WIND       PRES   REMARKS
ALGONA *       SUNNY     82 -27   1 W12       30.03S
CLARION *      SUNNY     82 -33   1 W12       30.03S
ESTHERVILLE    SUNNY     82  48  30 W6        30.01S HX  81
FORT DODGE *   SUNNY     81  59  47 SW3       30.04S HX  81
MASON CITY     SUNNY     81  56  42 W13       30.03S HX  81
FOREST CITY *  SUNNY     79  54  41 SW6       30.02S
IOWA FALLS *     N/A     81  55  41 W10       30.05S HX  80
$$

IAZ007>011-017>019-026>030-037>042-050>054-066-272200-
   NORTHEAST IOWA

CITY           SKY/WX    TMP DP  RH WIND       PRES   REMARKS
CEDAR RAPIDS   MOSUNNY   78  57  48 W7        30.05R
CHARLES CITY * SUNNY     81  55  41 W9G18     30.03S HX  80
CLINTON *      MOSUNNY   75  57  53 N8        30.07S
DECORAH *      MOSUNNY   77  59  53 VRB6G16   30.02S
DUBUQUE        PTSUNNY   75  59  57 W12       30.05S
MONTICELLO *   MOSUNNY   77  61  57 W10       30.04S
OELWEIN *      SUNNY     79  59  50 W15       30.04F HX  80
WATERLOO       SUNNY     80  57  45 W9        30.03R HX  80
$$

IAZ064-065-067-068-078-272200-
   EAST CENTRAL IOWA

CITY           SKY/WX    TMP DP  RH WIND       PRES   REMARKS
DAVENPORT      MOSUNNY   78  56  46 NW7       30.06R
IOWA CITY      SUNNY     79  57  46 NW7       30.06S HX  80
MT. PLEASANT * SUNNY     79  54  41 W6        30.07S
MUSCATINE *    SUNNY     79  55  44 NW8       30.06R
QUAD CITIES    SUNNY     80  56  43 NW12      30.04R HX  80
$$

IAZ062-063-075>077-085>089-095>099-272200-
   SOUTHEAST IOWA

CITY           SKY/WX    TMP DP  RH WIND       PRES   REMARKS
BURLINGTON     MOSUNNY   78  58  49 NW8       30.06S
FAIRFIELD *    SUNNY     79  55  44 NW5G15    30.07F
FORT MADISON * MOSUNNY   77  59  53 NW7       30.08S
KEOKUK *       SUNNY     79  59  50 VRB7G15   30.07S HX  80
OSKALOOSA *      N/A     79  54  41 W3        30.07S
CENTERVILLE *  SUNNY     79  79 100 W7        30.10S HX  83
OTTUMWA        SUNNY     79  54  41 VRB5      30.07S
WASHINGTON *   SUNNY     79  57  47 W8        30.08S HX  80
$$

ABBREVIATIONS USED IN REMARKS
   TC - TEMPERATURES IN CELSIUS
  WCI - WIND CHILL INDEX
   HX - HEAT INDEX
  VSB - VISIBILITY
$$



USA.gov is the U.S. government's official web portal to all federal, state and local government web resources and services.